Weather History for Moffett NAS, CA

Change the Weather History Date:

Monday, July 1, 2013

  Actual Average Record
Temperature  
Mean Temperature 75 °F 68 °F  
Max Temperature 87 °F 78 °F 97 °F (1985)
Min Temperature 63 °F 58 °F 47 °F (1975)
Degree Days  
Heating Degree Days 0    
Month to date heating degree days 0  
Since 1 June heating degree days 13  
Since 1 July heating degree days 0  
Cooling Degree Days 10    
Month to date cooling degree days 10  
Year to date cooling degree days 181  
Since 1 June cooling degree days 107  
Growing Degree Days 25 (Base 50)    
Moisture  
Dew Point 59 °F    
Average Humidity 62    
Maximum Humidity 90    
Minimum Humidity 34    
Precipitation  
Precipitation 0.00 in 0.00 in 0.06 in (1980)
Month to date precipitation 0.00 0.00  
Year to date precipitation 1.82 9.63  
Since 1 July precipitation 0.00 0.00  
Sea Level Pressure  
Sea Level Pressure 29.85 in    
Wind  
Wind Speed 5 mph (NNW)    
Max Wind Speed 16 mph    
Max Gust Speed 20 mph    
Visibility 10 miles    
Events      
T = Trace of Precipitation, MM = Missing Value Source: NWS Daily Summary

Daily Weather History Graph

Daily Weather History Graph

Search for Another Location

Airport:

Trip Planner

Search our weather history database for the weather conditions in past years. The results will help you decide how hot, cold, wet, or windy it might be!

Date:

Astronomy

Jul. 01, 2013 Rise Set
Actual Time 5:51 AM PDT 8:32 PM PDT
Civil Twilight 5:20 AM PDT 9:03 PM PDT
Nautical Twilight 4:41 AM PDT 9:42 PM PDT
Astronomical Twilight 3:58 AM PDT 10:25 PM PDT
Moon 1:19 AM PDT (7/1) 2:57 PM PDT (7/1)
Length of Visible Light 15h 43m
Length of Day
14h 41m
Waning Crescent, 34% of the Moon is Illuminated
Jul 1
Waning Crescent
Jul 8
New
Jul 15
First Quarter
Jul 22
Full
Jul 29
Last Quarter

Hourly Weather History & Observations

Time (PDT) Temp. Heat Index Dew Point Humidity Pressure Visibility Wind Dir Wind Speed Gust Speed Precip Events Conditions
12:56 AM 64.0 °F - 57.0 °F 78% 29.85 in 10.0 mi North 5.8 mph - N/A   Clear
1:56 AM 63.0 °F - 57.0 °F 81% 29.85 in 10.0 mi NE 3.5 mph - N/A   Clear
2:56 AM 64.0 °F - 57.9 °F 80% 29.84 in 10.0 mi Calm Calm - N/A   Clear
3:56 AM 64.0 °F - 57.9 °F 80% 29.84 in 10.0 mi Calm Calm - N/A   Clear
4:56 AM 64.0 °F - 57.9 °F 80% 29.85 in 10.0 mi Calm Calm - N/A   Clear
5:56 AM 63.0 °F - 59.0 °F 87% 29.84 in 10.0 mi Calm Calm - N/A   Clear
6:56 AM 64.0 °F - 59.0 °F 84% 29.84 in 10.0 mi Calm Calm - N/A   Clear
7:56 AM 66.9 °F - 59.0 °F 76% 29.85 in 10.0 mi Calm Calm - N/A   Clear
8:56 AM 70.0 °F - 60.1 °F 71% 29.85 in 10.0 mi Calm Calm - N/A   Clear
9:56 AM 72.0 °F - 61.0 °F 68% 29.85 in 10.0 mi NNW 4.6 mph - N/A   Clear
10:56 AM 78.1 °F - 61.0 °F 56% 29.85 in 10.0 mi NW 3.5 mph - N/A   Clear
11:56 AM 86.0 °F 86.1 °F 61.0 °F 43% 29.84 in 10.0 mi North 8.1 mph - N/A   Clear
12:56 PM 87.1 °F 85.7 °F 55.9 °F 35% 29.85 in 10.0 mi North 10.4 mph - N/A   Clear
1:56 PM 86.0 °F 85.0 °F 57.9 °F 38% 29.85 in 10.0 mi North 9.2 mph - N/A   Clear
2:56 PM 84.9 °F 84.4 °F 59.0 °F 41% 29.85 in 10.0 mi North 12.7 mph - N/A   Clear
3:56 PM 86.0 °F 85.7 °F 60.1 °F 41% 29.84 in 10.0 mi NNW 9.2 mph - N/A   Clear
4:56 PM 80.1 °F 81.1 °F 61.0 °F 52% 29.85 in 10.0 mi NNW 13.8 mph - N/A   Clear
5:56 PM 77.0 °F - 59.0 °F 54% 29.84 in 10.0 mi NNW 11.5 mph - N/A   Clear
6:56 PM 73.0 °F - 59.0 °F 61% 29.84 in 10.0 mi NNW 9.2 mph - N/A   Clear
7:56 PM 70.0 °F - 60.1 °F 71% 29.86 in 10.0 mi NNW 6.9 mph - N/A   Clear
8:56 PM 70.0 °F - 57.9 °F 65% 29.84 in 10.0 mi North 6.9 mph - N/A   Clear
9:56 PM 69.1 °F - 60.1 °F 73% 29.86 in 10.0 mi NNW 5.8 mph - N/A   Clear
10:56 PM 68.0 °F - 59.0 °F 73% 29.86 in 10.0 mi NW 3.5 mph - N/A   Clear
11:56 PM 68.0 °F - 59.0 °F 73% 29.87 in 10.0 mi NNW 4.6 mph - N/A   Clear